CAPE
2186 2229 2185 2155 2305 2642 2539 2826 2470 1744 895 582 444 109 109 73 26 20 12 0 0 0 0 0 24 101 55 37 44 20 30 23 17 0 2 5 13 34 29 78 38 13 6
2162 2394 2240 2143 2151 2415 2700 2545 1715 1247 418 358 268 174 64 45 43 70 18 0 0 0 0 5 92 99 94 81 85 80 72 59 55 16 0 4 16 7 30 51 50 38 27
2125 2300 2225 2087 2226 2275 2355 1404 981 364 0 8 0 3 81 83 41 92 135 80 2 0 6 62 94 130 73 84 89 36 71 68 67 61 52 49 18 7 27 42 65 29 21
2014 2336 2396 2227 2146 2248 1595 401 199 0 0 0 0 0 18 190 109 157 163 156 27 22 100 184 236 283 125 109 79 105 128 96 84 45 77 41 36 29 39 39 30 41 23
2149 2244 2473 2458 2233 1556 871 317 67 0 0 0 0 0 0 186 114 173 158 96 95 160 219 314 366 480 192 129 69 43 79 32 60 52 58 52 18 25 60 42 34 54 31
2282 2404 2426 2505 1825 875 604 395 100 0 0 0 0 0 0 33 8 5 74 137 191 331 404 495 431 246 330 111 27 0 0 0 23 7 17 5 3 89 73 39 48 33 32
2343 2436 2594 2306 1507 752 568 499 300 3 0 0 0 0 0 17 12 14 37 80 160 291 595 349 235 147 179 257 162 47 0 0 0 35 99 83 103 50 54 29 43 38 2
2375 2429 2475 1963 1334 968 648 659 336 46 0 22 28 2 0 0 110 37 28 167 300 661 520 259 136 125 138 212 214 97 89 100 124 73 34 15 29 14 0 1 2 2 3
2192 2253 1991 1622 1190 928 824 661 606 175 61 246 299 210 128 137 124 43 54 156 343 440 180 79 16 16 141 11 22 51 79 77 24 0 0 0 0 0 0 0 0 7 7
2119 2102 1712 1406 1252 969 1015 874 550 575 357 247 301 261 133 398 57 2 14 166 187 55 66 69 46 59 0 0 0 29 14 23 13 0 0 2 0 1 0 2 5 6 15
2109 1997 1503 1387 1560 1364 1138 806 778 650 425 490 394 376 316 48 259 12 0 112 87 51 42 94 133 0 0 0 0 0 0 0 0 0 0 0 0 1 8 16 2 0 0
2198 1802 1548 1553 1459 1510 1041 743 535 494 592 480 405 614 346 530 197 33 1 4 27 137 282 145 13 0 0 0 0 0 0 0 0 0 0 0 0 0 0 0 0 0 0
1892 1642 1538 1398 1229 1200 950 636 578 533 579 466 497 571 411 579 208 0 0 0 1 230 236 14 0 0 0 0 0 0 0 0 0 0 0 0 0 0 0 0 0 0 0
1679 1646 1385 1422 1172 894 847 807 855 837 747 641 684 551 264 374 265 23 0 0 0 0 0 0 0 0 0 0 0 0 0 0 0 0 0 0 0 0 0 0 0 0 1
1532 1446 1330 1047 989 1230 777 425 802 137 155 370 259 97 55 272 354 195 48 51 57 8 0 0 0 1 1 4 5 1 0 0 0 0 0 0 0 0 0 0 0 0 5
1238 1288 1199 1180 1278 1161 611 69 0 0 0 0 0 44 95 27 1 0 0 0 0 0 0 0 0 0 0 1 2 0 0 0 0 0 0 0 0 0 0 0 0 0 2
1224 1159 1004 862 657 641 603 276 63 0 0 0 0 0 0 0 0 0 0 0 0 0 0 0 0 0 0 0 0 0 0 0 0 0 0 0 0 0 0 0 0 0 0
1001 620 624 548 516 353 302 305 302 257 112 0 0 0 0 0 0 0 0 0 0 0 0 0 0 0 0 0 0 0 0 0 0 0 0 0 0 0 0 0 0 0 0
218 188 239 115 65 58 98 127 206 246 168 88 0 0 0 0 0 0 0 0 0 0 0 0 0 0 0 0 0 0 0 0 0 0 0 0 0 0 0 0 0 0 0
0 0 18 112 214 239 310 246 267 237 269 238 36 0 0 0 0 0 0 0 0 0 0 0 0 0 0 0 0 0 0 0 0 0 0 0 0 0 0 0 0 0 0
96 133 128 202 137 92 103 100 90 129 159 113 120 54 0 0 7 5 1 0 0 0 0 0 0 0 0 0 0 0 0 0 0 0 0 0 0 0 0 0 0 0 0
141 72 42 7 25 77 104 178 201 162 125 106 106 0 0 0 4 10 8 0 0 0 0 0 0 0 0 0 0 0 0 0 0 0 0 0 0 0 0 0 0 0 0
39 41 82 170 183 120 178 167 204 171 172 148 108 45 0 2 6 6 4 0 0 0 0 0 0 0 0 0 0 0 0 0 0 0 0 0 0 0 0 0 0 0 0
123 138 126 81 41 28 46 86 130 85 102 55 38 30 20 5 20 5 0 0 0 0 0 0 0 0 0 0 0 0 0 0 0 0 0 0 0 0 0 0 0 0 0
60 49 35 26 20 12 57 27 25 25 11 35 32 11 14 27 20 0 0 6 3 1 0 0 0 0 0 0 0 0 0 0 0 0 0 0 0 0 0 0 0 0 0
0 0 0 0 0 0 0 2 2 3 2 2 6 10 12 20 21 23 13 17 16 9 1 0 0 0 0 0 0 0 0 0 0 0 0 0 0 0 0 0 0 0 0
CIN
-73 -101 -99 -77 -44 -15 -2 -1 -4 -33 -113 -57 -61 -166 -145 -162 -132 -73 -113 -0 -0 -0 -0 -0 -46 -12 -1 -2 -1 -1 -2 -2 -1 -0 -2 -2 -0 -1 -1 -0 -1 -1 -1
-104 -116 -106 -85 -64 -36 -7 -13 -116 -72 -192 -145 -92 -76 -75 -100 -107 -41 -66 -0 -0 -0 -0 -6 -16 -47 -3 -2 -1 -1 -1 -1 -1 -4 -0 -1 -2 -0 -1 -1 -1 -2 -1
-101 -103 -111 -112 -85 -38 -48 -162 -185 -187 -0 -383 -0 -134 -89 -64 -53 -20 -21 -36 -53 -0 -2 -3 -5 -11 -5 -1 -4 -5 -3 -2 -4 -2 -2 -2 -3 -1 -2 -6 -1 -1 -26
-86 -100 -107 -123 -78 -61 -138 -337 -257 -0 -0 -0 -0 -0 -106 -50 -52 -32 -15 -20 -68 -62 -15 -2 -2 -0 -24 -54 -3 -40 -58 -47 -2 -2 -2 -4 -3 -3 -2 -3 -2 -2 -2
-103 -94 -84 -63 -88 -181 -287 -402 -368 -0 -0 -0 -0 -0 -0 -3 -39 -6 -29 -43 -57 -47 -18 -0 -1 -1 -12 -56 -24 -4 -11 -4 -2 -2 -2 -2 -3 -4 -3 -2 -2 -108 -158
-143 -115 -58 -75 -148 -364 -402 -396 -459 -0 -0 -0 -0 -0 -0 -139 -89 -64 -41 -29 -16 -3 -6 -1 -4 -11 -12 -45 -57 -0 -0 -0 -25 -13 -4 -2 -1 -1 -2 -2 -67 -133 -140
-187 -146 -115 -157 -249 -383 -408 -393 -421 -360 -0 -0 -0 -0 -0 -102 -82 -69 -75 -25 -1 -38 -0 -12 -18 -20 -7 -9 -31 -72 -0 -0 -0 -37 -2 -1 -1 -1 -2 -13 -36 -88 -0
-226 -184 -152 -201 -265 -313 -355 -299 -409 -471 -77 -353 -245 -57 -0 -2 -68 -67 -77 -27 -47 -1 -17 -38 -62 -49 -9 -7 -8 -28 -30 -20 -1 -3 -2 -4 -2 -2 -0 -0 -1 -1 -1
-246 -208 -227 -241 -274 -282 -275 -300 -252 -333 -347 -176 -91 -74 -45 -12 -64 -69 -80 -10 -8 -28 -57 -63 -66 -91 -21 -103 -68 -37 -13 -11 -9 -0 -0 -0 -0 -0 -0 -0 -0 -1 -0
-258 -232 -271 -264 -248 -282 -217 -200 -226 -159 -232 -161 -62 -41 -58 -2 -74 -110 -67 -20 -39 -54 -100 -88 -89 -80 -0 -0 -0 -28 -10 -1 -1 -0 -0 -1 -0 -2 -0 -4 -6 -2 -0
-210 -230 -287 -248 -169 -183 -170 -246 -76 -59 -88 -18 -5 -1 -10 -71 -30 -73 -0 -75 -72 -68 -83 -37 -26 -0 -0 -0 -0 -0 -0 -0 -0 -0 -0 -0 -0 -0 -2 -2 -0 -0 -0
-159 -209 -213 -159 -134 -84 -129 -165 -138 -65 -8 -7 -2 -0 -1 -1 -44 -128 -126 -52 -79 -47 -13 -2 -3 -0 -0 -0 -0 -0 -0 -0 -0 -0 -0 -0 -0 -0 -0 -0 -0 -0 -0
-186 -190 -152 -118 -87 -63 -84 -95 -67 -25 -3 -10 -1 -0 -1 -1 -65 -9 -0 -0 -65 -47 -0 -1 -0 -0 -0 -0 -0 -0 -0 -0 -0 -0 -0 -0 -0 -0 -0 -0 -0 -0 -0
-164 -117 -99 -45 -38 -59 -40 -23 -2 -0 -1 -2 -1 -1 -7 -3 -24 -200 -3 -26 -0 -12 -0 -0 -0 -0 -0 -0 -0 -0 -0 -0 -0 -0 -0 -0 -0 -0 -0 -0 -0 -0 -1
-121 -88 -40 -54 -43 -10 -95 -7 -3 -33 -14 -9 -5 -26 -19 -1 -4 -18 -62 -50 -63 -11 -0 -0 -0 -1 -1 -1 -1 -1 -0 -0 -0 -0 -0 -0 -0 -0 -0 -0 -0 -0 -1
-63 -25 -27 -22 -11 -5 -45 -77 -0 -0 -0 -0 -0 -112 -77 -8 -42 -0 -0 -0 -0 -0 -0 -0 -0 -0 -0 -0 -1 -0 -0 -0 -0 -0 -0 -0 -0 -0 -0 -0 -0 -0 -1
-34 -37 -35 -16 -10 -5 -3 -37 -107 -0 -0 -0 -0 -0 -0 -0 -0 -0 -0 -0 -0 -0 -0 -0 -0 -0 -0 -0 -0 -0 -0 -0 -0 -0 -0 -0 -0 -0 -0 -0 -0 -0 -0
-30 -69 -26 -25 -14 -8 -19 -29 -9 -11 -24 -0 -0 -0 -0 -0 -0 -0 -0 -0 -0 -0 -0 -0 -0 -0 -0 -0 -0 -0 -0 -0 -0 -0 -0 -0 -0 -0 -0 -0 -0 -0 -0
-92 -80 -48 -50 -64 -55 -75 -55 -16 -6 -4 -27 -0 -0 -0 -0 -0 -0 -0 -0 -0 -0 -0 -0 -0 -0 -0 -0 -0 -0 -0 -0 -0 -0 -0 -0 -0 -0 -0 -0 -0 -0 -0
-0 -0 -58 -17 -36 -27 -28 -32 -24 -24 -0 -1 -30 -0 -0 -0 -0 -0 -0 -0 -0 -0 -0 -0 -0 -0 -0 -0 -0 -0 -0 -0 -0 -0 -0 -0 -0 -0 -0 -0 -0 -0 -0
-28 -52 -38 -22 -27 -37 -45 -32 -16 -1 -2 -2 -1 -6 -0 -2 -11 -28 -2 -0 -0 -0 -0 -0 -0 -0 -0 -0 -0 -0 -0 -0 -0 -0 -0 -0 -0 -0 -0 -0 -0 -0 -0
-14 -37 -48 -88 -84 -61 -34 -10 -6 -5 -13 -12 -6 -6 -0 -1 -27 -7 -1 -2 -0 -0 -0 -0 -0 -0 -0 -0 -0 -0 -0 -0 -0 -0 -0 -0 -0 -0 -0 -0 -0 -0 -0
-46 -76 -39 -10 -2 -26 -15 -2 -1 -2 -3 -2 -0 -3 -0 -21 -3 -1 -2 -0 -0 -0 -0 -0 -0 -0 -0 -0 -0 -0 -0 -0 -0 -0 -0 -0 -0 -0 -0 -0 -0 -0 -0
-3 -1 -1 -1 -14 -14 -2 -3 -3 -7 -1 -3 -7 -1 -1 -2 -1 -2 -0 -0 -0 -0 -0 -0 -0 -0 -0 -0 -0 -0 -0 -0 -0 -0 -0 -0 -0 -0 -0 -0 -0 -0 -0
-1 -1 -1 -2 -13 -16 -1 -8 -1 -1 -4 -1 -1 -3 -2 -1 -1 -0 -0 -1 -1 -1 -0 -0 -0 -0 -0 -0 -0 -0 -0 -0 -0 -0 -0 -0 -0 -0 -0 -0 -0 -0 -0
-0 -0 -0 -0 -0 -0 -0 -1 -1 -1 -1 -1 -2 -1 -3 -1 -1 -4 -2 -1 -1 -1 -1 -0 -0 -0 -0 -0 -0 -0 -0 -0 -0 -0 -0 -0 -0 -0 -0 -0 -0 -0 -0
Wind_Speed
22 22 21 16 12 11 10 9 3 4 4 7 9 13 14 11 13 13 13 16 15 16 15 15 16 17 18 19 21 19 20 20 22 28 28 27 26 25 26 27 29 30 29
24 21 18 14 13 13 12 9 4 4 2 5 11 17 20 14 14 12 12 14 14 14 13 15 17 17 18 21 20 18 21 24 28 32 30 30 26 28 26 27 28 29 29
21 16 14 14 14 13 12 11 5 7 4 4 8 11 17 17 16 14 11 11 14 14 14 16 19 20 22 23 24 26 24 26 25 28 31 29 30 30 30 28 27 30 28
15 13 11 12 12 13 12 12 12 10 8 9 8 4 6 11 10 10 13 11 13 15 16 19 20 21 23 25 25 25 27 28 28 25 25 29 30 32 30 30 32 32 34
10 10 10 8 8 10 12 14 14 14 14 13 11 9 10 10 10 11 13 12 12 15 18 18 20 22 24 25 25 27 28 31 29 32 30 36 35 33 34 35 35 36 35
9 9 8 6 7 9 11 14 16 18 16 14 13 10 9 9 10 10 12 13 15 16 21 26 27 29 27 28 26 28 27 30 33 33 35 37 36 33 31 32 35 37 39
6 7 7 6 6 7 8 10 14 15 15 13 11 10 11 11 10 10 10 10 12 18 18 25 31 31 33 24 26 27 24 25 25 30 34 30 34 33 35 35 35 36 40
5 5 5 5 5 5 6 8 9 10 12 11 11 10 11 11 10 12 11 12 11 17 19 23 31 33 33 24 24 22 29 28 28 28 31 33 32 33 34 34 35 36 37
3 4 4 4 3 4 5 6 7 8 9 10 10 12 10 9 9 9 11 13 9 10 17 21 28 28 28 26 24 26 28 30 28 25 27 29 30 31 29 31 33 38 42
2 2 3 3 4 5 7 8 10 10 9 9 10 9 7 7 7 8 9 12 15 19 21 26 26 21 19 23 25 27 31 31 30 32 32 30 28 28 25 23 27 32 39
2 3 3 4 5 6 6 9 11 8 8 9 10 7 6 7 6 7 7 8 14 21 24 22 18 17 19 21 25 27 29 28 30 30 30 32 31 28 27 27 29 33 40
4 4 5 5 6 8 9 10 9 8 9 10 10 9 8 6 7 7 9 10 15 18 20 18 16 19 22 25 25 24 25 27 27 28 30 31 29 30 30 32 28 23 26
8 6 6 7 10 10 10 9 7 6 9 12 11 10 9 8 9 13 14 13 13 17 19 20 20 21 24 24 22 23 23 23 26 28 29 29 28 31 31 28 30 31 26
9 8 8 9 8 9 9 9 9 10 11 11 10 14 14 12 11 13 13 11 13 14 17 20 22 24 23 25 21 19 20 23 25 28 27 27 27 29 30 31 33 34 34
9 8 8 9 8 8 10 13 12 14 15 15 14 13 14 12 12 10 9 8 11 16 18 21 21 21 22 21 20 21 21 22 23 25 27 28 28 29 32 31 31 31 34
8 8 9 8 7 7 11 13 15 15 13 14 15 15 15 14 10 9 12 15 16 17 20 20 21 22 21 20 20 20 21 22 24 26 27 28 30 30 31 32 31 31 35
8 9 9 9 8 8 10 10 11 13 13 16 16 13 13 11 11 11 12 14 15 16 19 20 20 19 20 20 21 22 23 24 26 24 27 28 29 29 31 32 33 33 33
11 11 10 9 8 10 10 10 10 11 13 14 14 14 13 11 11 11 11 12 17 17 17 18 18 18 19 19 20 22 23 25 25 25 26 26 26 28 30 31 33 34 35
12 10 9 8 9 11 10 10 9 11 11 11 12 12 11 11 11 11 13 16 17 17 17 17 17 17 16 17 19 21 23 24 25 24 23 23 25 27 29 31 32 33 34
11 8 8 12 12 10 11 11 12 12 11 10 10 9 9 10 12 12 13 14 14 15 15 16 17 16 16 17 19 20 21 20 20 20 21 23 25 27 29 30 31 32 32
10 7 7 8 9 11 12 13 12 11 11 12 11 11 10 10 11 12 12 12 12 13 14 15 15 14 15 16 17 17 15 16 17 19 21 23 25 27 28 29 30 31 31
7 6 7 10 11 13 12 14 15 15 15 13 11 11 8 9 12 11 11 10 10 12 12 12 12 13 15 16 16 13 14 15 17 19 21 23 24 26 28 29 29 30 30
7 8 8 11 13 14 14 15 16 14 14 14 10 9 9 8 9 10 9 10 10 10 10 10 11 12 14 14 13 12 13 15 17 19 21 22 24 26 27 27 28 28 29
9 9 11 12 13 14 13 12 12 13 11 10 10 10 9 9 9 10 9 8 7 8 9 9 9 12 13 11 11 11 12 15 17 18 20 21 22 25 26 26 26 27 27
10 11 13 14 14 13 13 12 10 10 11 12 11 10 11 11 10 7 3 4 7 8 8 7 8 9 10 10 10 11 14 15 17 19 17 19 21 23 24 25 25 25 25
11 12 13 14 14 15 15 16 16 15 13 13 14 13 12 11 7 4 4 5 5 6 7 6 7 7 8 7 8 10 12 13 14 15 16 15 20 22 23 23 23 23 22
Wind_Direction
184 186 187 187 188 189 188 177 283 346 350 344 340 330 321 330 325 323 326 326 330 331 332 333 334 332 336 334 333 341 340 340 331 327 328 328 330 327 324 324 322 320 319
185 186 188 189 190 191 189 184 203 188 3 8 349 329 309 315 315 312 316 321 324 325 329 328 331 330 331 326 333 343 339 335 326 321 325 326 329 327 324 321 320 320 317
184 185 191 197 201 199 196 203 201 191 183 200 341 313 289 299 298 298 304 312 317 319 323 323 321 322 321 324 326 327 334 334 331 325 323 326 327 327 322 321 320 319 318
192 199 210 209 204 200 204 211 208 204 213 236 263 267 246 248 257 271 296 304 309 312 316 317 318 318 318 318 323 327 328 330 330 328 325 326 327 326 322 320 320 320 318
212 217 210 215 215 212 215 213 212 215 229 237 251 277 298 245 249 270 291 296 301 304 310 314 314 314 315 315 319 324 327 325 329 324 323 322 323 323 320 321 319 319 319
213 210 208 231 228 233 229 221 216 225 235 247 253 278 263 251 235 262 284 294 299 303 306 306 310 311 315 312 315 317 322 322 320 320 319 320 320 321 322 322 320 318 315
217 201 200 208 225 238 232 233 231 236 240 254 268 277 262 255 249 252 267 279 294 304 310 311 310 314 311 318 318 317 323 323 322 321 319 323 322 322 323 321 319 317 313
205 241 221 231 235 236 233 232 244 255 267 270 288 280 266 262 263 274 280 287 290 305 312 314 311 313 311 315 317 322 321 325 324 321 321 322 322 324 322 321 318 316 315
201 241 246 213 246 267 263 263 265 274 269 270 284 293 276 263 275 261 275 283 265 281 307 312 314 311 310 314 320 323 323 324 326 326 327 325 324 323 324 324 322 317 311
216 241 257 261 272 279 290 300 297 294 283 284 293 285 266 255 258 259 252 273 291 305 312 312 317 318 315 317 321 323 321 321 323 324 324 327 327 328 330 328 326 321 316
291 288 276 268 280 301 298 311 312 308 308 304 303 275 278 253 276 259 235 273 301 313 316 319 324 323 321 321 322 321 320 324 323 325 326 327 329 333 333 333 331 325 318
318 311 300 299 309 311 311 318 315 307 305 312 312 304 294 266 281 291 287 287 307 317 319 321 327 324 323 320 321 324 324 324 325 325 326 329 332 331 331 330 332 332 330
313 311 307 310 310 320 321 321 324 314 311 314 312 307 306 313 312 314 312 306 310 318 319 322 326 326 323 322 323 325 327 327 326 326 327 330 334 331 332 333 333 332 335
314 314 314 310 315 325 323 322 319 318 321 319 314 316 317 320 316 320 322 323 324 323 324 326 328 327 327 328 329 333 332 331 330 329 331 335 338 337 336 336 334 333 332
317 314 308 316 314 323 331 326 319 328 330 326 326 324 321 321 323 331 335 337 333 329 326 326 328 328 328 332 333 332 333 334 335 335 333 335 337 338 335 338 338 339 334
328 328 325 328 332 330 327 320 329 334 338 336 334 333 336 336 344 341 334 334 334 333 330 329 328 329 330 332 333 335 333 333 334 334 334 333 335 337 336 336 338 339 333
330 330 328 327 331 330 325 323 325 332 341 338 338 341 341 345 346 341 339 340 339 339 333 332 333 334 333 332 330 330 330 330 331 334 332 333 335 338 337 334 335 334 338
326 323 324 325 331 331 331 333 330 329 328 335 340 341 344 350 350 349 351 349 341 340 339 339 339 338 336 334 333 332 330 330 332 333 334 336 341 338 335 336 335 332 330
323 322 327 337 337 333 336 340 337 334 336 340 341 345 352 353 356 350 344 338 339 341 343 344 345 346 345 343 339 336 332 330 330 332 338 343 343 339 335 335 335 334 330
330 333 335 329 334 339 342 339 335 334 334 334 336 341 343 343 341 341 342 344 348 349 351 350 349 347 347 345 342 339 338 340 343 345 344 343 342 340 336 333 333 329 330
334 337 338 345 349 348 341 337 338 340 339 334 338 340 341 343 342 342 344 349 352 352 352 352 353 354 353 350 348 349 357 357 353 347 343 340 339 336 337 336 332 330 331
339 343 341 338 335 333 332 328 325 327 329 336 340 345 346 339 339 343 346 354 357 356 359 1 358 355 351 348 349 357 357 355 351 347 346 346 343 340 336 334 333 332 331
336 332 330 327 327 331 327 322 323 328 332 335 342 344 343 338 342 345 351 354 358 3 10 11 6 360 356 354 355 357 356 352 350 350 350 349 346 342 338 336 333 333 332
328 330 331 332 329 329 327 330 333 334 339 343 340 339 341 345 348 347 351 358 5 7 12 15 13 2 359 3 6 5 1 352 350 353 352 353 351 344 339 337 333 332 331
332 331 328 327 329 329 331 330 333 335 335 332 333 338 343 345 344 352 13 22 11 7 15 29 29 17 11 10 7 3 351 350 349 349 358 357 351 346 341 336 333 332 332
338 337 336 333 331 329 326 323 322 325 328 331 334 337 341 346 358 23 31 20 22 14 17 31 38 40 31 27 28 11 6 7 5 2 3 12 357 352 343 339 335 335 336